Terminal Aerodrome Forecast
Issued by NWS Portland, OR

Home | Current Version | Previous Version | Text Only | Print | Product List | Glossary On
Versions: 1 2 3 4 5 6 7 8 9 10 11 12 13 14 15 16 17 18 19 20 21 22 23 24 25 26 27 28 29 30 31 32 33 34 35 36 37 38 39 40 41 42 43 44 45
000
FTUS46 KPQR 051125
TAFAST
TAF
KAST 051125Z 0512/0612 22005KT P6SM -SHRA SCT025 BKN030 OVC070
      TEMPO 0512/0516 5SM BR BKN025
     FM052000 24012KT P6SM -SHRA SCT025 BKN045
     FM060200 25008KT P6SM VCSH BKN045
     FM060500 VRB03KT P6SM BKN050=

USA.gov is the U.S. government's official web portal to all federal, state and local government web resources and services.